Date String (YYYY-MM-DD hh:mm:ss) UTC,Instrument flags,absolute air pressure of the measurement (hPa),sample flow rate (lpm),inlet stack bypass flow (lpm),air temperature of the measurement (°C),ambient temperature measured by the external sensor (°C),aerosol sample conditioner tube jacket temperature (°C),OPC LED temperature (°C),internal box temperature (°C),relative humidity of the measurement (%),span deviation,mass concentration of particles derived from Lorenz-Mie calculation of OPC scattering (μg/m³),mass concentration of particles derived from Lorenz-Mie calculation of OPC scattering (μg/m³),mass concentration of particles derived from Lorenz-Mie calculation of OPC scattering (μg/m³)
DateTimeUTC,F1_M11,P_M11,Q1_M11,Q2_M11,T1_M11,T2_M11,T3_M11,T4_M11,T5_M11,U1_M11,ZSPAN_M11,X2_M11,X0_M11,X1_M11
2023-09-08 05:00:00,SystemResetWarning,0835.5,5.00,000.00,028.0,025.9,000.0,036.4,029.5,15.3,0000.0,0003.10,0012.68,0001.56
2023-09-08 05:01:00,SystemResetWarning,0835.5,5.01,000.00,028.0,026.2,000.0,036.4,029.6,15.3,0000.0,0003.02,0012.48,0001.56
2023-09-08 05:02:00,SystemResetWarning,0835.5,5.00,000.00,028.0,026.4,000.0,036.4,029.6,15.4,0000.0,0002.97,0012.41,0001.55
2023-09-08 05:03:00,SystemResetWarning,0835.5,5.00,000.00,028.1,026.6,000.0,036.4,029.7,15.3,0000.0,0003.01,0011.62,0001.56
2023-09-08 05:04:00,SystemResetWarning,0835.5,5.00,000.00,028.1,026.8,000.0,036.4,029.8,15.3,0000.0,0003.08,0011.82,0001.55
2023-09-08 05:05:00,SystemResetWarning,0835.5,5.00,000.00,028.2,027.0,000.0,036.4,029.8,15.4,0000.0,0003.13,0011.97,0001.56
2023-09-08 05:06:00,SystemResetWarning,0835.5,5.00,000.00,028.2,027.1,000.0,036.5,029.9,15.4,0000.0,0003.19,0010.96,0001.56
2023-09-08 05:07:00,SystemResetWarning,0835.5,5.00,000.00,028.2,027.2,000.0,036.5,029.9,15.4,0000.0,0003.23,0010.77,0001.56
2023-09-08 05:08:00,SystemResetWarning,0835.5,5.00,000.00,028.3,026.8,000.0,036.5,029.9,15.3,0000.0,0003.23,0010.32,0001.56
2023-09-08 05:09:00,SystemResetWarning,0835.5,5.00,000.00,028.2,025.2,000.0,036.4,029.4,15.4,0000.0,0003.26,0010.74,0001.57
2023-09-08 05:10:00,SystemResetWarning,0835.5,5.01,000.00,028.1,024.8,000.0,036.4,029.4,15.4,0000.0,0003.27,0010.60,0001.58
2023-09-08 05:11:00,SystemResetWarning,0835.5,5.01,000.00,028.0,024.9,000.0,036.4,029.3,15.6,0000.0,0003.29,0010.94,0001.59
2023-09-08 05:12:00,SystemResetWarning,0835.5,5.00,000.00,028.0,025.2,000.0,036.4,029.3,15.7,0000.0,0003.35,0011.05,0001.60
2023-09-08 05:13:00,SystemResetWarning,0835.5,5.00,000.00,028.0,025.5,000.0,036.4,029.4,15.7,0000.0,0003.38,0010.66,0001.60
2023-09-08 05:14:00,SystemResetWarning,0835.5,5.00,000.00,028.0,025.9,000.0,036.4,029.5,15.7,0000.0,0003.41,0010.61,0001.60
2023-09-08 05:15:00,SystemResetWarning,0835.5,5.00,000.00,028.0,026.1,000.0,036.4,029.6,15.7,0000.0,0003.39,0010.60,0001.60
2023-09-08 05:16:00,SystemResetWarning,0835.5,5.00,000.00,028.0,026.4,000.0,036.4,029.6,15.7,0000.0,0003.34,0010.85,0001.60
2023-09-08 05:17:00,SystemResetWarning,0835.5,5.00,000.00,028.1,026.6,000.0,036.4,029.7,15.6,0000.0,0003.32,0011.05,0001.61
2023-09-08 05:18:00,SystemResetWarning,0835.5,5.00,000.00,028.1,026.8,000.0,036.4,029.7,15.6,0000.0,0003.29,0011.79,0001.62
2023-09-08 05:19:00,SystemResetWarning,0835.7,4.99,000.00,028.1,026.9,000.0,036.5,029.8,15.6,0000.0,0003.30,0011.46,0001.61
2023-09-08 05:20:00,SystemResetWarning,0835.5,4.99,000.00,028.2,027.0,000.0,036.5,029.8,15.6,0000.0,0003.31,0011.24,0001.61
2023-09-08 05:21:00,SystemResetWarning,0835.5,5.00,000.00,028.2,027.1,000.0,036.5,029.9,15.6,0000.0,0003.28,0011.09,0001.60
2023-09-08 05:22:00,SystemResetWarning,0835.5,4.99,000.00,028.2,027.2,000.0,036.5,029.9,15.5,0000.0,0003.26,0010.84,0001.60
2023-09-08 05:23:00,SystemResetWarning,0835.6,5.00,000.00,028.3,027.2,000.0,036.6,030.0,15.5,0000.0,0003.21,0011.24,0001.58
2023-09-08 05:24:00,SystemResetWarning,0835.5,5.00,000.00,028.3,025.9,000.0,036.5,029.6,15.5,0000.0,0003.17,0011.75,0001.59
2023-09-08 05:25:00,SystemResetWarning,0835.5,5.00,000.00,028.1,024.7,000.0,036.5,029.4,15.6,0000.0,0003.18,0012.43,0001.60
2023-09-08 05:26:00,SystemResetWarning,0835.6,5.01,000.00,028.1,024.7,000.0,036.4,029.3,15.7,0000.0,0003.20,0012.82,0001.61
2023-09-08 05:27:00,SystemResetWarning,0835.5,5.01,000.00,028.0,025.0,000.0,036.4,029.3,15.7,0000.0,0003.23,0012.67,0001.63
2023-09-08 05:28:00,SystemResetWarning,0835.5,5.00,000.00,028.0,025.3,000.0,036.4,029.3,15.8,0000.0,0003.25,0012.56,0001.62
2023-09-08 05:29:00,SystemResetWarning,0835.5,5.01,000.00,028.0,025.7,000.0,036.4,029.4,15.7,0000.0,0003.26,0012.05,0001.62
2023-09-08 05:30:00,SystemResetWarning,0835.5,5.00,000.00,028.0,026.0,000.0,036.4,029.5,15.7,0000.0,0003.28,0012.89,0001.63
2023-09-08 05:31:00,SystemResetWarning,0835.5,5.00,000.00,028.0,026.2,000.0,036.4,029.6,15.7,0000.0,0003.22,0012.90,0001.61
2023-09-08 05:32:00,SystemResetWarning,0835.6,5.00,000.00,028.0,026.4,000.0,036.4,029.7,15.7,0000.0,0003.24,0013.48,0001.60
2023-09-08 05:33:00,SystemResetWarning,0835.5,5.00,000.00,028.1,026.6,000.0,036.4,029.7,15.7,0000.0,0003.21,0013.38,0001.60
2023-09-08 05:34:00,SystemResetWarning,0835.5,4.99,000.00,028.1,026.8,000.0,036.4,029.7,15.6,0000.0,0003.20,0012.93,0001.61
2023-09-08 05:35:00,SystemResetWarning,0835.6,5.00,000.00,028.1,026.9,000.0,036.5,029.8,15.6,0000.0,0003.23,0012.72,0001.62
2023-09-08 05:36:00,SystemResetWarning,0835.6,5.00,000.00,028.2,027.0,000.0,036.5,029.8,15.5,0000.0,0003.26,0012.72,0001.60
2023-09-08 05:37:00,SystemResetWarning,0835.6,5.00,000.00,028.2,027.1,000.0,036.5,029.9,15.5,0000.0,0003.26,0012.14,0001.59
2023-09-08 05:38:00,SystemResetWarning,0835.6,5.00,000.00,028.2,027.2,000.0,036.5,029.9,15.4,0000.0,0003.25,0012.90,0001.56
2023-09-08 05:39:00,SystemResetWarning,0835.6,5.01,000.00,028.3,027.3,000.0,036.6,030.0,15.4,0000.0,0003.25,0013.34,0001.57
2023-09-08 05:40:00,SystemResetWarning,0835.6,5.00,000.00,028.3,027.3,000.0,036.6,030.0,15.3,0000.0,0003.25,0013.79,0001.58
2023-09-08 05:41:00,SystemResetWarning,0835.6,4.97,000.00,028.3,025.9,000.0,036.6,029.7,15.3,0000.0,0003.26,0013.52,0001.60
2023-09-08 05:42:00,SystemResetWarning,0835.6,5.01,000.00,028.2,024.7,000.0,036.5,029.4,15.4,0000.0,0003.32,0013.46,0001.61
2023-09-08 05:43:00,SystemResetWarning,0835.6,5.01,000.00,028.1,024.7,000.0,036.4,029.3,15.4,0000.0,0003.35,0012.85,0001.62
2023-09-08 05:44:00,SystemResetWarning,0835.6,4.99,000.00,028.0,024.9,000.0,036.4,029.2,15.5,0000.0,0003.39,0013.27,0001.61
2023-09-08 05:45:00,SystemResetWarning,0835.6,5.00,000.00,028.0,025.2,000.0,036.4,029.3,15.6,0000.0,0003.48,0013.58,0001.61
2023-09-08 05:46:00,SystemResetWarning,0835.6,5.01,000.00,028.0,025.6,000.0,036.4,029.4,15.6,0000.0,0003.53,0013.60,0001.61
2023-09-08 05:47:00,SystemResetWarning,0835.6,5.01,000.00,028.0,025.9,000.0,036.4,029.5,15.5,0000.0,0003.54,0013.79,0001.63
2023-09-08 05:48:00,SystemResetWarning,0835.6,5.00,000.00,028.0,026.1,000.0,036.4,029.5,15.4,0000.0,0003.56,0014.33,0001.65
2023-09-08 05:49:00,SystemResetWarning,0835.6,5.00,000.00,028.0,026.3,000.0,036.4,029.6,15.4,0000.0,0003.60,0013.80,0001.67
2023-09-08 05:50:00,SystemResetWarning,0835.6,5.00,000.00,028.0,026.5,000.0,036.4,029.7,15.4,0000.0,0003.62,0015.12,0001.68
2023-09-08 05:51:00,SystemResetWarning,0835.7,5.00,000.00,028.1,026.7,000.0,036.5,029.7,15.4,0000.0,0003.66,0015.57,0001.69
2023-09-08 05:52:00,SystemResetWarning,0835.7,5.00,000.00,028.1,026.8,000.0,036.5,029.7,15.3,0000.0,0003.69,0015.55,0001.70
2023-09-08 05:53:00,SystemResetWarning,0835.7,5.00,000.00,028.1,026.9,000.0,036.5,029.8,15.3,0000.0,0003.76,0016.49,0001.72
2023-09-08 05:54:00,SystemResetWarning,0835.7,5.00,000.00,028.2,027.0,000.0,036.5,029.8,15.2,0000.0,0003.80,0016.70,0001.76
2023-09-08 05:55:00,SystemResetWarning,0835.7,5.00,000.00,028.2,027.1,000.0,036.5,029.9,15.2,0000.0,0003.82,0016.73,0001.79
2023-09-08 05:56:00,SystemResetWarning,0835.8,5.00,000.00,028.2,027.2,000.0,036.6,029.9,15.3,0000.0,0003.85,0017.03,0001.82
2023-09-08 05:57:00,SystemResetWarning,0835.8,5.00,000.00,028.3,027.3,000.0,036.6,029.9,15.5,0000.0,0003.85,0017.62,0001.84
2023-09-08 05:58:00,SystemResetWarning,0835.8,4.99,000.00,028.3,027.3,000.0,036.6,030.0,15.4,0000.0,0003.90,0018.46,0001.86
2023-09-08 05:59:00,SystemResetWarning,0835.7,5.00,000.00,028.3,026.2,000.0,036.6,029.7,15.2,0000.0,0003.94,0018.95,0001.88
